Skip Page Navigation
NASA JPL Caltech
NASA Logo - Jet Propulsion Laboratory + View the NASA Portal
+ Center for Near-Earth Object Studies
JPL Home Earth Solar System Stars & Galaxies Technology
JPL Solar System Dynamics
BODIES ORBITS EPHEMERIDES TOOLS PHYSICAL DATA DISCOVERY FAQ SITE MAP
JPL Small-Body Database Browser
Search: [ help ]  
160860 (2001 FV142)
Classification: Main-belt Asteroid          SPK-ID: 2160860
Ephemeris | Orbit Diagram | Orbital Elements | Mission Design | Physical Parameters | Discovery Circumstances ]

[ show orbit diagram ]
Orbital Elements at Epoch 2459000.5 (2020-May-31.0) TDB
Reference: JPL 14 (heliocentric ecliptic J2000)
 Element Value Uncertainty (1-sigma)   Units 
e .04352946264453038 4.3136e-08  
a 2.743396358191367 2.1164e-08 au
q 2.623977788898335 1.2026e-07 au
i 7.007156449009965 5.905e-06 deg
node 165.5241999880728 4.1224e-05 deg
peri 140.161158662846 8.528e-05 deg
M 324.2026440733874 7.6673e-05 deg
tp 2459165.536388977505
(2020-Nov-12.03638898)
0.00035396 TDB
period 1659.706380373548
4.54
1.9205e-05
5.258e-08
d
yr
n .216905836030452 2.51e-09 deg/d
Q 2.862814927484398 2.2085e-08 au
  Orbit Determination Parameters
   # obs. used (total)      426  
   data-arc span      6597 days (18.06 yr)  
   first obs. used      2001-03-19  
   last obs. used      2019-04-11  
   planetary ephem.      DE431  
   SB-pert. ephem.      SB431-N16  
   condition code      0  
   norm. resid. RMS      .60158  
   source      ORB  
   producer      Otto Matic  
   solution date      2019-Jul-13 14:41:57  

Additional Information
 Earth MOID = 1.61399 au 
 Jupiter MOID = 2.24983 au 
 T_jup = 3.337 
[ show covariance matrix ]

Ephemeris | Orbit Diagram | Orbital Elements | Mission Design | Physical Parameters | Discovery Circumstances ]

Physical Parameter Table
Parameter Symbol Value Units Sigma Reference Notes
absolute magnitude H 15.7   n/a MPO475386  

160860 (2001 FV142)          Discovered 2001-Mar-23 by NEAT at Haleakala
Reference: 20070828/Numbers.arcLast Updated: 2007-08-30

Alternate Designations
 2001 FV142 = 2006 HH72 
Ephemeris | Orbit Diagram | Orbital Elements | Mission Design | Physical Parameters | Discovery Circumstances ]
ABOUT SSD CREDITS/AWARDS PRIVACY/COPYRIGHT GLOSSARY LINKS
FirstGov 2020-Jul-13 05:41 UT
(server date/time)  
NASA Home Page
Site Manager:   Ryan S. Park
Webmaster  Alan B. Chamberlin